SCP
2 2 2 2 1 1 1 1 1 1 1 1 1 1 1 1 1 1 1 1 1 2 2 2 2 2 2 2 2 2 2 2 2 2 1 1 1 1 1 1 1 1 1
1 1 1 1 1 1 1 1 1 1 1 0 0 0 1 1 1 1 1 1 1 2 2 2 2 2 2 2 2 2 2 2 2 2 2 2 2 2 2 1 1 1 1
1 1 1 1 1 1 1 1 1 1 1 0 0 0 0 0 0 1 1 1 1 2 2 2 2 3 3 3 3 3 3 3 3 3 2 2 2 2 2 2 1 1 1
1 1 0 0 0 0 1 1 1 0 0 0 0 0 0 0 1 1 1 1 1 2 2 2 2 2 3 3 3 3 3 4 4 4 3 3 2 2 2 2 2 1 1
1 1 1 1 1 1 1 1 1 0 0 0 0 0 0 0 1 1 1 1 1 1 2 2 2 3 2 2 3 3 3 4 4 4 4 3 3 2 2 2 2 2 2
0 1 1 1 1 1 0 0 0 0 0 0 0 0 0 0 0 0 1 1 1 1 2 2 2 2 2 2 2 2 3 3 4 4 4 4 3 3 3 3 3 3 3
0 0 1 1 1 0 0 0 0 0 0 0 0 0 0 0 0 0 1 1 1 1 1 2 2 2 2 2 2 2 2 3 3 4 4 4 4 4 3 4 4 3 3
0 0 0 0 0 0 0 0 0 0 0 0 0 1 1 1 1 0 0 1 1 1 1 1 1 1 1 2 2 2 2 2 3 4 5 5 4 4 4 4 4 3 3
0 0 0 0 0 0 0 0 1 1 1 1 1 1 1 1 1 1 1 1 1 1 1 1 1 1 2 2 2 2 2 2 3 4 5 5 4 4 4 3 3 3 3
0 0 0 0 0 0 0 1 1 1 1 1 1 1 1 1 1 1 1 1 1 1 1 1 1 1 2 2 3 2 1 1 2 2 3 3 3 3 3 3 3 3 3
1 1 1 1 1 1 1 1 1 1 1 2 2 2 2 2 2 2 2 2 2 2 1 1 2 2 3 3 3 2 1 1 1 1 2 2 2 2 2 2 3 3 3
1 1 1 1 1 1 1 1 1 1 2 2 2 2 2 2 3 3 3 2 2 2 1 1 2 3 4 4 2 1 1 1 1 1 1 1 1 1 2 2 2 2 2
1 1 1 1 1 1 1 1 1 2 2 2 3 3 3 3 3 4 4 3 2 2 1 1 2 4 4 3 2 1 1 1 1 1 1 1 1 1 1 1 1 2 2
1 1 1 1 1 1 1 1 1 2 2 2 3 3 3 3 4 4 4 3 3 2 2 2 2 3 3 2 1 1 1 1 1 1 1 1 1 1 1 1 1 1 1
1 1 1 1 1 1 1 1 2 2 2 2 2 2 2 3 3 4 4 4 3 3 2 2 2 2 2 1 1 1 1 1 1 1 1 0 1 1 1 1 1 1 1
1 1 1 1 1 1 1 2 2 2 2 2 2 2 3 3 3 4 4 4 4 3 2 2 2 2 2 1 2 2 2 2 1 1 1 0 0 0 0 1 1 1 1
1 1 2 2 2 2 2 2 2 2 2 2 2 3 2 2 3 3 3 3 3 2 2 2 2 2 1 1 2 2 1 2 1 1 1 0 0 0 0 0 0 0 0
1 1 1 2 2 2 2 2 2 3 3 2 2 2 2 2 2 2 2 2 2 2 2 2 2 1 1 1 2 1 1 2 2 1 1 0 0 0 0 0 0 0 0
1 1 1 2 2 2 2 3 3 3 3 2 2 2 2 1 2 2 2 2 2 1 2 2 1 1 1 2 2 2 2 2 2 1 1 1 1 0 0 0 0 0 0
1 1 1 2 2 2 2 3 3 3 3 2 2 1 1 1 1 2 2 2 1 1 1 1 1 1 2 2 2 2 2 2 2 1 1 1 1 1 1 0 0 0 0
1 1 2 2 2 2 2 2 2 2 2 2 2 2 2 2 2 2 2 2 1 1 2 2 2 2 2 2 2 2 2 2 2 1 1 1 2 2 1 1 0 0 0
2 2 2 3 3 2 2 2 1 2 2 2 2 2 2 2 2 1 1 1 1 1 2 2 2 2 2 3 3 3 2 2 2 1 1 1 2 2 1 1 0 0 0
3 3 3 4 4 3 2 1 1 1 2 2 2 2 2 2 2 1 1 1 1 1 2 2 3 3 3 3 3 3 2 2 2 1 1 1 1 1 1 1 0 0 0
3 3 4 4 4 4 3 1 1 1 2 2 2 2 2 2 2 2 2 1 1 1 1 2 2 2 2 2 2 2 2 2 1 2 2 2 2 2 1 1 1 0 0
2 3 3 3 4 3 2 1 1 2 3 3 2 2 2 2 1 1 1 1 2 2 1 1 1 1 1 1 1 1 1 1 1 2 2 2 2 2 2 1 1 0 0
2 2 3 3 3 3 2 2 2 3 3 3 2 2 1 1 1 1 1 1 1 1 1 1 1 1 0 0 0 1 1 1 1 2 2 2 2 2 2 2 1 1 1
Wind_Speed
1 1 0 0 0 0 0 0 1 1 1 2 2 2 3 3 3 3 2 5 6 7 8 9 9 9 9 9 9 9 10 10 10 10 9 9 9 9 9 9 9 9 9
1 1 1 0 0 0 1 1 1 1 1 1 2 3 3 3 3 3 3 3 6 6 7 8 8 8 9 9 9 10 10 10 10 10 10 11 10 10 10 10 10 9 8
2 2 1 1 1 1 0 0 1 1 1 1 2 3 2 2 3 3 3 3 3 5 6 7 8 8 8 9 9 9 10 9 9 10 10 10 11 10 10 10 10 9 9
2 2 1 1 1 0 1 1 1 1 2 2 2 3 2 2 3 3 2 2 2 3 4 7 7 7 8 8 9 9 10 10 10 10 10 10 10 11 10 10 11 10 10
2 2 1 1 1 0 0 1 0 1 1 2 2 2 2 2 3 3 3 3 3 3 3 4 7 7 8 8 9 9 9 9 9 10 10 11 11 11 11 11 11 11 11
2 2 1 1 1 0 0 1 1 1 1 1 2 2 2 2 2 2 3 2 2 3 3 4 3 4 7 8 8 9 9 8 9 10 10 10 10 11 11 11 12 12 12
2 2 1 1 1 1 1 1 0 1 1 0 1 2 2 2 1 1 1 1 2 2 3 3 3 3 3 6 8 8 9 9 8 9 9 10 10 10 10 11 12 12 13
2 2 2 2 1 1 1 1 1 0 0 1 1 1 3 3 2 1 1 1 2 2 2 3 3 3 3 3 4 7 8 9 8 8 8 9 10 10 10 10 11 12 12
2 2 2 2 2 2 2 2 1 1 1 0 1 1 0 2 3 2 2 1 2 2 2 3 3 3 4 3 4 6 7 7 7 7 7 8 8 8 10 10 10 11 11
1 2 2 2 2 2 2 2 2 1 2 1 0 1 1 2 1 3 3 2 2 2 3 3 3 3 3 3 4 6 6 6 6 7 7 6 7 8 8 10 10 11 11
1 1 1 1 2 2 2 2 1 2 2 2 1 1 1 1 2 2 4 4 3 2 2 3 3 3 3 3 3 5 6 6 6 6 7 6 6 7 7 8 9 10 10
1 1 1 1 2 1 2 2 2 2 2 2 2 2 2 2 2 3 3 4 4 3 3 3 2 2 3 3 4 5 5 5 6 6 6 6 6 6 7 7 7 8 9
1 2 2 2 2 2 2 1 1 2 2 3 3 3 3 3 2 2 2 3 3 3 3 2 2 2 2 2 3 5 5 5 5 5 6 6 6 5 6 7 7 7 7
3 2 2 2 2 2 2 2 1 2 2 2 3 3 2 3 3 3 3 2 3 3 2 4 2 2 2 2 4 5 4 5 5 5 5 5 5 6 6 6 6 7 6
2 2 2 2 2 2 2 2 1 2 2 2 3 3 3 3 2 3 3 3 2 3 4 3 2 2 2 3 4 3 4 4 5 5 6 6 6 6 6 6 6 6 6
2 2 2 2 2 2 2 2 2 2 2 3 2 3 3 3 2 2 3 3 3 4 4 3 3 3 4 4 3 3 4 5 5 6 6 6 6 6 6 6 6 6 6
2 3 3 3 3 2 2 2 2 2 2 3 3 3 4 3 3 2 2 2 3 3 5 4 3 3 3 4 4 3 3 3 4 6 6 7 7 6 6 6 6 7 7
3 3 3 3 3 3 2 3 4 3 3 3 3 3 4 3 3 3 2 3 3 3 3 5 3 3 3 4 4 4 4 3 4 5 6 7 7 7 7 7 6 6 6
3 3 3 3 3 3 3 3 3 3 3 3 4 3 3 3 3 3 3 3 3 3 3 3 4 2 3 3 3 4 4 3 4 4 5 6 7 7 7 7 7 7 7
3 3 3 3 3 3 3 3 3 3 3 3 3 3 3 3 4 4 3 3 3 3 2 2 3 3 3 3 2 3 4 3 4 4 4 5 6 7 7 8 8 8 7
3 3 2 2 2 3 3 3 3 3 3 3 3 3 4 4 4 4 3 3 3 3 2 2 3 3 3 2 3 3 4 4 4 3 3 3 3 4 4 6 7 8 8
2 2 2 3 3 3 3 3 3 3 3 3 4 4 4 4 5 6 6 6 5 4 4 3 3 4 5 4 3 3 3 3 4 2 3 4 3 4 4 4 6 8 8
1 2 3 3 3 4 4 4 4 3 3 4 4 4 4 4 4 4 5 6 6 6 6 5 5 5 5 4 4 4 4 4 5 3 3 4 3 4 4 4 6 8 8
2 2 3 3 3 4 4 4 4 3 4 4 4 4 5 5 4 3 3 3 4 4 5 5 5 5 5 4 4 4 4 5 4 3 3 4 3 4 4 4 5 7 7
2 2 2 2 3 4 4 4 3 2 3 5 5 5 5 5 6 4 3 4 5 4 4 5 5 5 5 5 3 2 2 3 4 3 2 3 3 4 4 4 4 5 6
2 2 2 2 2 3 4 4 3 2 3 4 4 4 5 6 6 4 3 3 5 5 4 3 3 4 4 3 4 4 3 3 3 3 2 3 3 2 4 3 3 3 4
Wind_Direction
179 183 219 263 278 176 182 289 283 286 289 293 276 260 253 248 247 244 249 244 242 241 241 241 238 237 235 233 231 231 232 229 226 225 224 224 225 227 226 222 220 222 223
180 190 225 261 266 230 209 237 257 264 279 289 290 277 262 254 239 235 236 248 249 243 246 246 243 244 243 242 238 235 236 236 231 225 226 228 227 229 229 226 224 223 224
185 193 198 229 249 240 215 243 282 287 288 294 292 288 274 254 242 242 239 235 245 245 247 251 250 248 247 247 246 241 238 236 232 228 226 226 225 228 230 228 226 222 221
188 188 201 230 230 205 201 208 244 275 287 290 287 288 290 273 256 250 247 243 238 246 252 255 257 256 255 252 251 250 244 238 236 231 228 226 226 228 230 230 228 225 222
195 185 197 217 197 185 229 257 218 208 265 290 284 278 282 268 262 258 253 250 241 244 249 258 257 256 257 259 259 259 256 246 241 237 233 230 228 227 230 230 228 227 225
195 171 185 204 185 173 270 282 265 245 253 281 295 304 291 277 267 259 258 259 252 252 254 259 259 264 263 264 264 263 264 258 248 243 240 237 233 231 230 229 230 229 227
188 174 187 194 186 194 230 242 236 259 300 359 3 337 329 319 296 272 258 258 268 265 260 257 254 257 269 270 269 268 267 265 257 250 247 242 239 236 233 232 231 227 228
188 188 186 199 199 200 230 216 169 204 285 89 97 25 344 338 334 338 314 262 279 279 274 272 260 258 263 267 275 271 267 265 263 260 254 247 242 240 239 238 234 230 230
199 196 195 196 201 194 222 225 196 180 213 324 123 132 136 291 315 318 306 300 302 294 287 284 273 268 264 263 272 275 271 266 264 267 266 254 246 246 244 242 236 234 235
209 206 199 198 203 210 229 235 194 189 181 212 223 195 202 195 250 309 310 301 301 295 294 294 286 275 271 268 268 272 273 268 264 267 268 264 257 256 254 249 245 242 240
227 218 208 200 211 223 237 239 209 199 197 203 205 204 213 218 218 236 286 308 312 290 283 281 276 276 275 267 268 274 273 268 264 266 266 262 261 257 258 256 253 251 245
255 257 219 208 217 227 237 232 222 214 216 217 217 209 205 211 216 219 253 284 297 297 294 277 270 272 276 272 275 284 275 270 268 267 265 261 257 259 260 255 255 257 253
244 248 236 218 221 230 229 222 219 231 221 220 226 230 228 232 219 212 236 269 283 293 298 285 262 267 278 276 279 286 279 271 266 263 261 258 258 262 265 254 250 252 255
238 243 222 219 221 222 222 209 217 240 231 235 245 236 235 243 228 219 218 236 285 291 284 279 284 262 277 284 282 285 280 267 255 255 255 255 256 256 261 254 247 248 250
236 232 223 228 236 232 223 204 221 242 242 246 252 249 245 249 240 235 227 215 227 276 285 269 274 285 288 286 285 284 277 270 262 254 254 257 258 251 252 252 246 243 242
229 224 227 235 247 247 234 214 229 241 240 255 250 257 263 264 262 245 235 230 221 234 264 267 263 288 297 298 299 287 281 280 270 261 261 261 260 255 251 253 250 245 242
227 230 233 236 243 245 235 227 240 244 250 265 268 260 267 265 265 260 245 238 231 227 255 277 271 286 286 294 302 292 278 267 269 267 266 263 261 258 255 256 255 250 244
233 231 232 238 244 246 234 229 245 248 248 262 270 268 272 273 270 269 259 253 247 234 242 272 287 291 284 292 295 293 292 281 274 274 267 263 261 257 255 255 253 250 245
240 239 228 236 244 246 241 237 237 241 240 247 252 254 269 272 274 273 268 267 261 257 245 260 282 287 287 298 303 298 293 286 287 281 269 261 256 254 253 254 251 247 244
237 242 238 240 240 240 239 234 229 240 248 253 253 255 262 257 260 266 266 267 263 260 256 258 274 288 287 293 290 293 299 293 288 291 284 276 267 261 255 256 252 244 239
241 243 244 252 249 241 241 232 224 231 238 255 261 262 263 267 270 265 268 261 251 247 252 258 270 282 283 287 280 278 286 297 285 271 283 281 277 272 268 260 253 248 240
252 254 257 254 259 263 276 253 234 238 238 245 257 267 272 270 280 278 277 265 245 237 238 241 253 261 269 269 271 274 282 296 290 276 282 284 272 270 270 266 259 249 242
270 267 264 260 265 277 287 283 260 242 247 253 254 261 272 278 277 280 285 277 262 255 239 232 244 253 260 257 257 270 266 269 270 281 279 276 272 271 273 274 261 246 241
273 262 267 267 267 281 288 281 267 249 252 255 253 252 259 275 276 279 280 286 278 269 254 242 246 255 257 250 240 250 258 268 272 263 245 266 278 279 286 278 270 251 244
285 280 275 269 268 284 294 287 267 257 261 266 263 259 259 266 275 272 263 273 286 290 276 265 259 265 269 263 244 242 254 265 278 269 236 257 275 283 281 275 277 263 257
274 289 297 285 270 279 296 297 277 252 271 280 279 272 263 265 276 260 248 256 274 283 291 293 285 286 281 267 242 229 233 250 268 270 235 241 264 280 285 276 286 289 268